Location: Dammartin
(48.9032°N, 1.6195°E)
Time: 21:27:31
(UTC+00:00)

Cosmos 2360 Rocket - Pass Details

Date: 03 February 2023
Orbit: 832 x 846 km, 71.0° (Epoch: 21 March)

Event Time Altitude Azimuth Distance (km) Brightness Sun altitude
Rises 19:47:24 0° 232° (SW) 3,380 5.9 -28.7°
Reaches altitude 10° 19:49:59 10° 239° (WSW) 2,451 5.2 -29.1°
Maximum altitude 19:55:14 40° 308° (NW) 1,235 3.4 -29.9°
Enters shadow 19:58:03 24° 1° (N) 1,682 3.8 -30.4°
